Weather Roundup
Issued by NWS Corpus Christi, TX

Home | Current Version | Previous Version | Text Only | Print | Product List | Glossary On
Versions: 1 2 3 4 5 6 7 8 9 10 11 12 13 14 15 16 17 18 19 20 21 22 23 24 25 26 27 28 29 30 31 32 33 34 35 36 37 38 39 40 41 42 43 44 45 46 47 48 49 50
000
ASUS44 KCRP 251510
HRRCRP

SOUTH TEXAS REGIONAL WEATHER ROUNDUP
NATIONAL WEATHER SERVICE CORPUS CHRISTI TX
1000 AM CDT SAT MAR 25 2017


TXZ229>244-251600-
...CORPUS CHRISTI AREA OBSERVATIONS...

CITY           SKY/WX    TMP DP  RH WIND       PRES   REMARKS
CORPUS CHRISTI PTSUNNY   75  70  84 SW16      30.03R
NAS CORPUS CHR PTSUNNY   76  70  82 SW15      30.03R
ROCKPORT       CLOUDY    74  68  81 W7        30.05R HAZE
KINGSVILLE NAS CLOUDY    76  71  85 S14       30.03R
ALICE          CLOUDY    74  69  85 W3        30.04R
ORANGE GROVE   CLOUDY    74  71  91 NW7       30.06R
FALFURRIAS     PTSUNNY   76  70  81 S9        30.02R
$$

...VICTORIA AREA OBSERVATIONS...

CITY           SKY/WX    TMP DP  RH WIND       PRES   REMARKS
VICTORIA       CLOUDY    67  59  75 N9        30.07R
BEEVILLE       CLOUDY   N/A N/A N/A N3        30.06R
PLEASANTON     SUNNY     67  44  44 N9        30.09R
SAN ANTONIO    MOSUNNY   66  42  41 N13       30.09R
$$

...LAREDO AREA OBSERVATIONS...

CITY           SKY/WX    TMP DP  RH WIND       PRES   REMARKS
LAREDO         CLOUDY    71  66  84 NW7       30.08R
COTULLA        SUNNY     71  41  33 NE9       30.08R
DEL RIO        SUNNY     64  37  36 NW14      30.14R
MCALLEN        MOSUNNY   78  69  73 S8        30.03R
HEBBRONVILLE   CLOUDY    70  67  90 CALM      30.06R FOG
$$

...OTHER TEXAS OBSERVATIONS...

CITY           SKY/WX    TMP DP  RH WIND       PRES   REMARKS
BROWNSVILLE    PTSUNNY   78  71  79 S14       30.03R
HOUSTON        MOSUNNY   69  51  52 N13       30.04R
COL. STATION   SUNNY     64  46  52 NW15      30.06S
AUSTIN         MOSUNNY   64  46  52 NW9       30.08R
WACO           SUNNY     59  45  59 NW15      30.06F
FORT WORTH     MOSUNNY   59  44  57 NW17      30.02S
WICHITA FALLS  CLOUDY    54  42  64 NW14      30.04R
LUBBOCK        SUNNY     53  32  44 NW16      30.11S
EL PASO        SUNNY     54  20  26 CALM      30.14R
$$

...MARINE OBSERVATIONS...

STATION/POSITION TIME  SKY/WX   TEMP    WIND        PRES    VSBY  WAVE   SWELL
                                AIR SEA DIR/SP/G                  HT/PER HT/PER
                 (UTC)          (F)     (DEG/KT/KT) (MB)    (MI)  (FT/S) (FT/S)
PORT ARANSAS     1500            71 70  200/  9/ 10 1016.8R
BUOY 90 E PORT A 1450            73 72  210/ 12/ 14 1016.9R         7/ 8   7/ 8
BUOY 45 SE BAFFI 1450            72     180/  8/ 10 1016.1R         7/ 8   7/ 8
BUOY 200 E PT IS 1450            76 77  150/ 14/ 16 1017.6F         6/ 7   5/ 7
BUOY 15 E GALVES 1450            71 71  220/ 10/ 12 1016.8R         5/ 8   5/ 8
$$




USA.gov is the U.S. government's official web portal to all federal, state and local government web resources and services.